Wheeler Army Airfield, HI

7:58 AM HST on February 08, 2016 (GMT -1000)
Wheeler Army Air Field

Weather History for PHHI - May, 2013

Change the Weather History Date:

Saturday, May 25, 2013

  Actual Average Record
Temperature  
Mean Temperature 74 °F -  
Max Temperature 79 °F 78 °F 82 °F (2000)
Min Temperature 68 °F 64 °F 60 °F (2015)
Cooling Degree Days 8    
Growing Degree Days 24 (Base 50)    
Moisture  
Dew Point 66 °F    
Average Humidity 76    
Maximum Humidity 84    
Minimum Humidity 65    
Precipitation  
Precipitation 0.01 in - - ()
Sea Level Pressure  
Sea Level Pressure 30.03 in    
Wind  
Wind Speed 6 mph (NE)    
Max Wind Speed 18 mph    
Max Gust Speed 22 mph    
Visibility 10 miles    
Events Rain    
Averages and records for this station are not official NWS values.
T = Trace of Precipitation, MM = Missing Value Source: NWS Daily Summary

Daily Weather History Graph

Daily Weather History Graph

Search for Another Location

Airport or City:

Trip Planner

Search our weather history database for the weather conditions in past years. The results will help you decide how hot, cold, wet, or windy it might be!

Date:

Astronomy

May. 25, 2013 Rise Set
Actual Time 5:50 AM HST 7:08 PM HST
Civil Twilight 5:26 AM HST 7:32 PM HST
Nautical Twilight 4:57 AM HST 8:01 PM HST
Astronomical Twilight 4:27 AM HST 8:31 PM HST
Moon 8:09 PM HST (5/25) 6:26 AM HST (5/25)
Length of Visible Light 14h 06m
Length of Day
13h 17m
Full, 99% of the Moon is Illuminated
May 25
Full
May 31
Last Quarter
Jun 8
New
Jun 16
First Quarter
Jun 23
Full

Hourly Weather History & Observations

Time (HST) Temp. Dew Point Humidity Pressure Visibility Wind Dir Wind Speed Gust Speed Precip Events Conditions
12:55 AM 71.6 °F 63.1 °F 75% 30.02 in 10.0 mi NE 4.6 mph - N/A   Partly Cloudy
1:55 AM 70.7 °F 62.8 °F 76% 30.01 in 10.0 mi Calm Calm - N/A   Overcast
2:39 AM 69.8 °F 62.6 °F 78% 30.01 in 10.0 mi NW 4.6 mph - N/A   Light Drizzle
2:52 AM 69.8 °F 62.6 °F 78% 30.01 in 10.0 mi WNW 3.5 mph - N/A   Mostly Cloudy
2:55 AM 70.3 °F 63.0 °F 77% 30.01 in 10.0 mi WNW 3.5 mph - 0.00 in   Mostly Cloudy
3:55 AM 68.4 °F 63.3 °F 84% 30.01 in 10.0 mi West 4.6 mph - N/A   Overcast
4:55 AM 69.6 °F 63.3 °F 80% 30.02 in 10.0 mi NW 3.5 mph - N/A   Overcast
5:35 AM 68.0 °F 62.6 °F 83% 30.02 in 10.0 mi NW 3.5 mph - N/A   Light Drizzle
5:45 AM 68.0 °F 62.6 °F 83% 30.02 in 10.0 mi WNW 4.6 mph - N/A   Overcast
5:55 AM 68.2 °F 63.3 °F 84% 30.03 in 10.0 mi Calm Calm - 0.00 in   Overcast
6:46 AM 69.8 °F 64.4 °F 83% 30.05 in 8.0 mi SE 4.6 mph - N/A   Light Drizzle
6:55 AM 70.3 °F 65.1 °F 83% 30.04 in 4.0 mi Calm Calm - 0.00 in   Light Drizzle
7:01 AM 69.8 °F 64.4 °F 83% 30.04 in 10.0 mi WSW 3.5 mph - N/A   Mostly Cloudy
7:55 AM 71.8 °F 65.3 °F 80% 30.05 in 10.0 mi Calm Calm - 0.00 in   Overcast
8:01 AM 71.6 °F 66.2 °F 83% 30.05 in 10.0 mi Calm Calm - N/A   Overcast
8:05 AM 71.6 °F 64.4 °F 78% 30.06 in 10.0 mi Calm Calm - N/A   Light Drizzle
8:15 AM 71.6 °F 64.4 °F 78% 30.05 in 10.0 mi Calm Calm - N/A   Overcast
8:43 AM 73.4 °F 66.2 °F 78% 30.05 in 10.0 mi NNW 3.5 mph - N/A   Light Drizzle
8:55 AM 73.4 °F 66.0 °F 78% 30.05 in 10.0 mi ENE 3.5 mph - 0.00 in   Light Drizzle
8:58 AM 73.4 °F 66.2 °F 78% 30.05 in 10.0 mi NE 4.6 mph - N/A   Mostly Cloudy
9:43 AM 75.2 °F 66.2 °F 73% 30.05 in 7.0 mi ENE 9.2 mph - N/A   Light Drizzle
9:50 AM 75.2 °F 66.2 °F 73% 30.05 in 8.0 mi Variable 3.5 mph - N/A   Mostly Cloudy
9:55 AM 75.0 °F 66.0 °F 73% 30.05 in 10.0 mi NNE 8.1 mph - 0.00 in   Mostly Cloudy
10:55 AM 77.4 °F 66.0 °F 68% 30.05 in 10.0 mi ENE 13.8 mph 21.9 mph N/A   Mostly Cloudy
11:55 AM 78.4 °F 66.2 °F 66% 30.04 in 10.0 mi ENE 13.8 mph - N/A   Scattered Clouds
12:13 PM 78.8 °F 66.2 °F 65% 30.05 in 10.0 mi ENE 15.0 mph - N/A Rain Light Rain
12:23 PM 77.0 °F 66.2 °F 69% 30.04 in 10.0 mi NE 12.7 mph - N/A   Mostly Cloudy
12:55 PM 79.0 °F 67.6 °F 68% 30.03 in 10.0 mi NE 18.4 mph - 0.00 in Rain Light Rain
1:05 PM 77.0 °F 68.0 °F 74% 30.03 in 10.0 mi NE 16.1 mph - N/A   Mostly Cloudy
1:35 PM 78.8 °F 68.0 °F 69% 30.03 in 10.0 mi ENE 18.4 mph - N/A   Light Drizzle
1:48 PM 78.8 °F 68.0 °F 69% 30.02 in 10.0 mi ENE 13.8 mph - N/A   Partly Cloudy
1:55 PM 78.4 °F 66.9 °F 68% 30.02 in 10.0 mi NE 12.7 mph - 0.00 in   Partly Cloudy
2:03 PM 78.8 °F 68.0 °F 69% 30.03 in 10.0 mi NE 13.8 mph - N/A Rain Light Rain
2:29 PM 77.0 °F 68.0 °F 74% 30.03 in 10.0 mi ENE 13.8 mph - N/A   Partly Cloudy
2:55 PM 77.2 °F 67.3 °F 71% 30.02 in 10.0 mi NE 12.7 mph 20.7 mph 0.00 in   Scattered Clouds
3:48 PM 77.0 °F 66.2 °F 69% 30.01 in 9.0 mi NE 12.7 mph - N/A Rain Light Rain
3:55 PM 75.7 °F 66.9 °F 74% 30.01 in 9.0 mi NE 10.4 mph - 0.00 in Rain Light Rain
4:00 PM 75.2 °F 66.2 °F 73% 30.01 in 10.0 mi NE 9.2 mph - N/A   Scattered Clouds
4:11 PM 75.2 °F 68.0 °F 78% 30.02 in 8.0 mi ENE 11.5 mph - N/A   Light Drizzle
4:28 PM 75.2 °F 68.0 °F 78% 30.01 in 10.0 mi NE 12.7 mph - N/A   Partly Cloudy
4:47 PM 75.2 °F 68.0 °F 78% 30.01 in 10.0 mi NE 11.5 mph - N/A   Light Drizzle
4:55 PM 74.8 °F 68.2 °F 80% 30.01 in 10.0 mi ENE 10.4 mph - 0.01 in   Light Drizzle
4:58 PM 75.2 °F 68.0 °F 78% 30.01 in 10.0 mi ENE 10.4 mph - N/A   Partly Cloudy
5:06 PM 75.2 °F 68.0 °F 78% 30.01 in 10.0 mi NE 13.8 mph - N/A   Light Drizzle
5:14 PM 75.2 °F 66.2 °F 73% 30.01 in 10.0 mi ENE 12.7 mph - N/A   Clear
5:29 PM 75.2 °F 66.2 °F 73% 30.01 in 10.0 mi ENE 12.7 mph - N/A Rain Light Rain
5:37 PM 73.4 °F 66.2 °F 78% 30.01 in 10.0 mi ENE 11.5 mph - N/A   Clear
5:55 PM 74.8 °F 66.6 °F 75% 30.01 in 10.0 mi NE 12.7 mph - 0.00 in   Partly Cloudy
6:15 PM 75.2 °F 66.2 °F 73% 30.01 in 9.0 mi ENE 18.4 mph - N/A Rain Light Rain
6:27 PM 73.4 °F 68.0 °F 83% 30.01 in 9.0 mi NE 10.4 mph - N/A   Partly Cloudy
6:55 PM 72.3 °F 66.6 °F 82% 30.03 in 10.0 mi Variable 4.6 mph - 0.00 in   Partly Cloudy
7:55 PM 71.2 °F 64.8 °F 80% 30.05 in 10.0 mi Calm Calm - N/A   Scattered Clouds
8:55 PM 70.9 °F 64.9 °F 81% 30.07 in 10.0 mi East 4.6 mph - N/A   Scattered Clouds
9:55 PM 71.6 °F 65.1 °F 80% 30.08 in 10.0 mi NNE 6.9 mph - N/A   Scattered Clouds
10:55 PM 71.6 °F 64.8 °F 79% 30.08 in 10.0 mi NNE 3.5 mph - N/A   Scattered Clouds
11:55 PM 71.4 °F 64.2 °F 78% 30.07 in 10.0 mi Calm Calm - N/A   Partly Cloudy